Regional Weather Roundup
Issued by NWS Wakefield, VA

Home | Current Version | Previous Version | Graphics & Text | Print | Product List | Glossary On
Versions: 1 2 3 4 5 6 7 8 9 10 11 12 13 14 15 16 17 18 19 20 21 22 23 24 25 26 27
000
ASUS41 KAKQ 272315
RWRAKQ

REGIONAL WEATHER ROUNDUP
NATIONAL WEATHER SERVICE WAKEFIELD VA
700 PM EDT THU JUL 27 2017

Note: "fair" indicates few or no clouds below 12,000 feet with no
significant weather and/or obstructions to visibility. * = Denotes
station may not report precipitation (e.g., rain,snow,etc.),
thunder or fog.

VAZ042-051-052>054-056-280000-
NORTHERN VIRGINIA

CITY           SKY/WX    TMP DP  RH WIND       PRES   REMARKS
WASH NATIONAL  CLOUDY    84  76  76 S10       29.87S
DULLES         CLOUDY    83  71  67 S5        29.87F
FORT BELVOIR   CLOUDY    83  74  76 S5        29.86F
QUANTICO       CLOUDY    84  77  79 SW5       29.87F
FREDERICKSBRG* CLOUDY    83  75  77 SW6       29.86F
STAFFORD*      CLOUDY    81  74  79 SW3       29.91F
WARRENTON      CLOUDY    83  72  69 S7        29.86F
CULPEPER*      CLOUDY    83  74  74 SW7       29.88S
MANASSAS*      CLOUDY    82  76  81 S6        29.87F
LEESBURG*      CLOUDY    86  77  74 SW3       29.88S HX  97
WINCHESTER     CLOUDY    75  68  78 SE6       29.89S
FRONT ROYAL*   CLOUDY    77  73  88 N5        29.88S
LURAY*         CLOUDY    79  70  73 S5        29.89S
$$

VAZ048-049-060>072-079>083-280000-
CENTRAL AND SOUTH CENTRAL VIRGINIA

CITY           SKY/WX    TMP DP  RH WIND       PRES   REMARKS
RICHMOND       LGT RAIN  85  73  67 W9        29.88F
CHESTERFIELD*  NOT AVBL
PETERSBURG*    CLOUDY    81  73  75 CALM      29.90S
HANOVER        CLOUDY    84  71  65 SW6       29.89F
TAPPAHANNOCK*  CLOUDY    86  61  42 CALM      29.89S
QUINTON*       FAIR      85  73  67 CALM      29.88S
CHARLOTTSVILLE LGT RAIN  79  75  87 SW5       29.90F
GORDONSVILLE*  CLOUDY    78  76  94 SW3       29.88F
ORANGE*        CLOUDY    79  72  78 SW13G21   29.88F
LOUISA*        LGT RAIN  79  73  83 W3        29.88F
BUMPASS*       FAIR      78  77  99 CALM      29.88F
FARMVILLE*     CLOUDY    73  71  91 S3        29.90F
CREWE*         FAIR      77  63  62 CALM      29.91F
FORT PICKETT*  FAIR     N/A N/A N/A W5G16     29.92S
CHASE CITY*    MOCLDY    74  74  99 S3        29.95R
CLARKSVILLE*   CLOUDY    73  73 100 CALM      29.95R
SOUTH HILL*    CLOUDY    79  71  75 CALM      29.99R
LAWRENCEVILLE* MOCLDY    76  70  81 NW5       29.92S
EMPORIA*       PTSUNNY   84  70  61 S3        29.92S
$$

VAZ088>098-280000-
SOUTHEAST VIRGINIA

CITY           SKY/WX    TMP DP  RH WIND       PRES   REMARKS
NORFOLK        PTSUNNY   86  71  60 SW15      29.90S
VIRGINIA BEACH CLOUDY    84  70  62 S8        29.90S
NORFOLK NAVAL  PTSUNNY   86  71  60 SW9       29.91S
WEST POINT*    PTSUNNY   87  69  55 SW3       29.89S
SALUDA*        MOCLDY    84  74  72 S5        29.88S
NEWPORT NEWS   MOSUNNY   85  71  63 SW14      29.89S
LANGLEY AFB    MOSUNNY   85  72  64 SW14      29.89S
FORT EUSTIS    MOSUNNY   85  74  67 S8        29.87S
WILLIAMSBURG*  CLOUDY    88  73  62 CALM      29.90S HX  96
HR EXEC AP*    FAIR      82  72  69 SW6       29.88S
FRANKLIN*      CLOUDY    84  72  65 S7        29.91S
US460-WAKEFLD  CLOUDY    85  73  67 SW5       29.89F
$$

VAZ020-022-025-037-045-280000-
WEST CENTRAL AND SOUTHWEST VIRGINIA

CITY           SKY/WX    TMP DP  RH WIND       PRES   REMARKS
STAUNTON*      LGT RAIN  75  72  88 S7        29.95F
WAYNESBORO*    CLOUDY    75  72  92 SW7       29.95F
HOT SPRINGS VA LGT RAIN  66  64  94 CALM      30.08S VSB 1/2
LYNCHBURG      CLOUDY    72  70  93 S3        29.95F
DANVILLE       CLOUDY    75  73  93 NE5       29.94F
SOUTH BOSTON*  MOCLDY    73  71  95 SW6       29.94F
MARTINSVILLE   CLOUDY    74  70  85 N3        29.98F
ROANOKE        CLOUDY    75  71  87 W5        29.98S
BLACKSBURG     CLOUDY    72  69  90 CALM      30.05S
DUBLIN*        CLOUDY    74  65  74 SW6       30.04R
MARION*        CLOUDY    73  66  79 W3        30.08F
HILLSVILLE*    CLOUDY    71  65  81 CALM      30.05R
RICHLANDS*     FAIR      69  65  87 CALM      30.05F
WISE*          LGT RAIN  70  70 100 SE3       30.05S
ABINGDON*      PTSUNNY   75  73  91 S5        30.02F
$$

MDZ021>025-VAZ099-100-280000-
SOUTHERN MARYLAND AND THE DELMARVA PENINSULA

CITY           SKY/WX    TMP DP  RH WIND       PRES   REMARKS
PATUXENT RIVER CLOUDY    81  74  79 S5        29.87F
BAY BRIDGE APT PTSUNNY   82  73  74 SE8       29.87F
LEONARDTOWN    CLOUDY    79  72  78 CALM      29.90S
DOVER          PTSUNNY   80  80 100 S9        29.87S
GEORGETOWN     CLOUDY    79  72  79 S5        29.91S
EASTON         CLOUDY    82  72  69 S8        29.92F
CAMBRIDGE      SUNNY     81  73  78 CALM      29.89R
SALISBURY      CLOUDY    78  73  84 SE6       29.90S
OCEAN CITY     CLOUDY    77  72  84 S8        29.91S
WALLOPS ISLAND CLOUDY    76  73  91 S13       29.91F
ACCOMACK*      CLOUDY    79  73  80 S8        29.90S
$$

NCZ012>017-030>032-280000-
NORTH CENTRAL AND EASTERN NORTH CAROLINA

CITY           SKY/WX    TMP DP  RH WIND       PRES   REMARKS
ROANOKE RAPIDS FAIR      82  72  69 CALM      29.92S
RALEIGH        CLOUDY    87  70  56 SW6       29.93F
ELIZABETH CITY CLOUDY    84  73  69 S9        29.93S
AHOSKIE*         N/A     81  74  79 S3        29.92S
EDENTON*       CLOUDY    85  74  68 CALM      29.93S
CURRITUCK*     CLOUDY    84  71  64 S3        29.93S
KILL DEVIL HLS CLOUDY    82  69  65 S3        29.93F
MANTEO         CLOUDY    83  70  65 SW17      29.95S
CAPE HATTERAS  MOSUNNY   82  71  69 SW9       29.97S
TARBORO*       NOT AVBL
GOLDSBORO      MOSUNNY   88  71  55 S5        29.91F
WASHINGTON     MOSUNNY   85  70  60 S8        29.93F
GREENVILLE     MOSUNNY   86  70  58 SW14      29.95S
NEW BERN       MOSUNNY   83  68  60 S9        29.96F
WILMINGTON     PTSUNNY   82  73  74 S9        29.96F
$$

VAZ048-280000-
ELSEWHERE

CITY           SKY/WX    TMP DP  RH WIND       PRES   REMARKS
HARRISBURG PA  PTSUNNY   79  73  82 SE5       29.87S
BALTIMORE      CLOUDY    82  75  79 S5        29.86F
ANNAPOLIS      CLOUDY    82  77  84 SE7       29.87F
ANDREWS AFB    CLOUDY    82  74  77 S7        29.87F
PHILADELPHIA   CLOUDY    80  71  74 VRB7      29.89S
HENDERSON NC   CLOUDY    80  68  66 NW13      29.95R
GREENSBORO     CLOUDY    83  74  74 SW6       29.94F
ROCKY MOUNT    CLOUDY    83  76  79 CALM      29.93S
$$

VAZ100-280000-
MARINE

STATION/POSITION TIME  TEMP    WIND        PRES    WAVE   SWELL
                       AIR SEA DIR/SP/G            HT/PER HT/PER
                 (UTC) (F)     (DEG/KT/KT) (MB)    (FT/S) (FT/S)
BRANDYWINE LGT   2248   76     180/ 14/ 15 1012.5F
CAPE MAY NJ      2248   75 76  180/ 10/ 13 1011.9F
LEWES DE         2248   78 75  170/  7/ 10 1012.1F
15NM E FENWICK I 2150   77 77  180/ 14/ 16 1013.4    3/ 4   2/ 7
OCEAN-CITY-INLET 2248   74 75  220/  9/ 10 1013.2F
WACHAPREAGUE VA  2248   78 83  140/ 12/ 16 1012.2F
THOMAS POINT MD  2300   81 81  150/ 12/ 13   N/A
GOOSES REEF MD   2250   83     240/  8/ 10 1012.3F
COVE POINT MD    2248   82     190/  6/  8 1012.3F
SOLOMONS ISLAND  2248   83 84  160/  6/  6   N/A
BISHOPS HEAD MD  2248   81 81  160/ 13/ 14 1012.1F
PINEY POINT MD   2248          160/  7/  7   N/A
CAMBRIDGE MD     2248   81 84              1012.7F
LEWISETTA VA     2248   82 82  160/  2/  3 1011.6F
RAPPAHANNOCK LGT 2248          130/ 10/ 12 1012.6F
STINGRAY PT      2250   85     240/ 10/ 12 1012.1S
YORK RVR RNG VA  2248   85     230/ 18/ 19 1012.1F
YORKTOWN VA      2248   85 82  210/  8/ 16 1011.7F
JAMESTOWN VA     2250          220/  8/ 10   N/A
DOMINION TERM VA 2248   84     200/ 10/ 12 1012.4F
KIPTOPEKE VA     2248      78  170/ 11/ 13   N/A
CHES BAY BRIDGE  2248   84 78  220/ 14/ 18 1012.2S
CAPE HENRY VA    2248   85     210/  5/  9   N/A
WILLOUBY STN VA  2248   85     210/ 12/ 15 1012.2F
S CRANEY ISL VA  2248   85     210/  7/ 12 1012.2F
CAPE HENRY BUOY  2230      74                N/A     3/10
1ST LANDING BUOY 2250   83                 1012.2S
64NM E OF VA BCH 2250   79 78  190/ 14/ 16 1014.2F   3/ 7   2/ 7
DUCK PIER NC     2248   83 73  180/ 14/ 16 1013.0S
44100 DUCK FRF   2205      74                N/A     3/ 7
44056 DUCK FRF   2230      75                N/A     3/ 7
OREGON INLET NC  2248          180/ 15/ 18 1014.2F
HATTERAS NC      2248   82 80  190/  5/  9 1014.7F
DIAMOND SHLS NC  2250   82 85  190/ 10/ 12 1015.0S   3/ 8   2/ 8
CAPE LOOKOUT NC  2300   82     180/ 11/ 13 1014.6F
$$




USA.gov is the U.S. government's official web portal to all federal, state and local government web resources and services.